Regional Weather Roundup
Issued by NWS Tiyan, Guam

Home | Current Version | Previous Version | Text Only | Print | Product List | Glossary On
Versions: 1 2 3 4 5 6 7 8 9 10 11 12 13 14 15 16 17 18 19 20 21 22 23 24 25 26 27 28 29 30 31 32 33 34 35 36 37 38 39 40 41 42 43 44 45 46 47 48 49 50
000
ASGM40 PGUM 160712
RWRGUM
WEATHER ROUNDUP FOR THE MARIANAS
NATIONAL WEATHER SERVICE TIYAN GU
500 PM CHST TUE SEP 16 2014

GUZ001>004-160800-
MARIANA ISLANDS-

CITY           SKY/WX    TMP DP  RH WIND       PRES   REMARKS
GUAM AIRPORT   LGT RAIN  75  75 100 S7        29.77R
ANDERSEN AFB   LGT RAIN  73  72  94 SW10      29.76R FOG
ROTA AIRPORT   PTSUNNY   77  75  94 S13G20    29.73F
TINIAN AP      PTSUNNY   81  77  89 S8        29.72S
SAIPAN AP      PTSUNNY   81  77  89 S10       29.74F

$$



USA.gov is the U.S. government's official web portal to all federal, state and local government web resources and services.